Погода в Дубне

Россия / Московская область     55°07′21″N   37°20′46″E
темп.,
°C
ветер,
м/с
пор.,
м/с
влажн.,
%
обл.,
%
осадки,
мм/ч
давл.,
гПа
погр.,
м
25 июня, сб
сб2500:00+15св22818 0.0 101628
03:00+14св23831 0.0 101844
06:00+16ссв25819 0.0 1018132
09:00+22св34575 0.0 1019664
12:00+25св35485 0.0 10191819
15:00+26всв354418 0.0 10182044
18:00+26св24530 0.0 10181452
21:00+20ссв11745 0.0 101911
26 июня, вс
вс2600:00+17св11830 0.0 102111
03:00+16св11860 0.0 102111
06:00+18с12805 0.0 102262
09:00+25с12560 0.0 1022561
12:00+28ссв22420 0.0 10221889
15:00+29св23393 0.0 10212346
18:00+28ю225176 0.0 1020339
21:00+23зюз2473100 0.0 102168
27 июня, пн
пн2700:00+21зсз24786 0.0 102175
03:00+19сз23894 0.0 102254
06:00+20зсз25830 0.0 1022129
09:00+26зсз34580 0.0 1021496
12:00+31ссз35420 0.0 10202132
15:00+32ссз46355 0.0 10192824
18:00+30сз464738 0.0 10191046
21:00+22ссз22700 0.0 102022
28 июня, вт
вт2800:00+19сз00740 0.0 102011
03:00+18с11755 0.0 102114
06:00+19св257848 0.0 1021145
09:00+23всв45665 0.0 1022764
12:00+24всв455185 0.0 10231140
15:00+25св45429 0.0 10221646
18:00+23всв34457 0.0 1022916
21:00+16всв27715 0.0 1024145
29 июня, ср
ср2900:00+13всв25725 0.0 1025102
03:00+11всв24730 0.0 102576
06:00+12св26730 0.0 1026158
09:00+18всв35480 0.0 1025909
12:00+21всв44390 0.0 10251717
15:00+22всв34363 0.0 10251946
18:00+21всв23400 0.0 10241683
21:00+15в006011 0.0 102510